When you browse on this site, cookies collect data to enhance your experience and personalize the content and advertising you see.
Visit our Privacy Policy to learn more. By continuing to use the site, you agree to this use of cookies and data.
  • In Italy
  • List of Countries
  • For 7 days
  • Water Temperature
  • Satellite Maps
  • Weather Map
  • Weather Widgets
  • user-avatar
    Login

    Hourly Weather Sevan

    Today, 26 March, Tuesday

    Time Temperature Precipitation Wind Pressure Humidity
    00:00 0°C° 0.3 mm 3 mps 636 mmHg 73%
    01:00 -1°C° 0.3 mm 3 mps 636 mmHg 73%
    02:00 -1°C° 0.3 mm 3 mps 636 mmHg 74%
    03:00 -1°C° 0.3 mm 3 mps 636 mmHg 74%
    04:00 -1°C° 0.2 mm 3 mps 636 mmHg 74%
    05:00 -1°C° 0.2 mm 2 mps 636 mmHg 74%
    06:00 -1°C° 0.2 mm 2 mps 636 mmHg 75%
    07:00 +1°C° 0.2 mm 2 mps 636 mmHg 73%
    08:00 +3°C° 0.2 mm 1 mps 637 mmHg 71%
    09:00 +3°C° 0.2 mm 0 mps 637 mmHg 69%
    10:00 +5°C° 0.2 mm 1 mps 637 mmHg 70%
    11:00 +5°C° 0.2 mm 1 mps 637 mmHg 70%
    12:00 +6°C° 0.2 mm 1 mps 637 mmHg 71%
    13:00 +6°C° 0.1 mm 1 mps 637 mmHg 70%
    14:00 +7°C° 0.1 mm 1 mps 636 mmHg 68%
    15:00 +7°C° 0.1 mm 1 mps 636 mmHg 67%
    16:00 +6°C° 0.1 mm 1 mps 636 mmHg 67%
    17:00 +6°C° 0.1 mm 1 mps 636 mmHg 67%
    18:00 +5°C° 0.1 mm 1 mps 636 mmHg 67%
    19:00 +4°C° 0.1 mm 1 mps 636 mmHg 68%
    20:00 +3°C° 0.1 mm 0 mps 636 mmHg 69%
    21:00 +2°C° 0.1 mm 0 mps 636 mmHg 70%
    22:00 +2°C° 0 mm 0 mps 636 mmHg 69%
    23:00 +1°C° 0 mm 0 mps 636 mmHg 69%

    Tomorrow, 27 March, Wednesday

    Time Temperature Precipitation Wind Pressure Humidity
    00:00 +2°C° 0 mm 1 mps 636 mmHg 68%
    01:00 +2°C° 0 mm 1 mps 636 mmHg 67%
    02:00 +1°C° 0 mm 1 mps 636 mmHg 67%
    03:00 +1°C° 0 mm 1 mps 636 mmHg 66%
    04:00 +1°C° 0 mm 1 mps 636 mmHg 69%
    05:00 +1°C° 0 mm 1 mps 636 mmHg 72%
    06:00 +1°C° 0 mm 1 mps 636 mmHg 75%
    07:00 +1°C° 0 mm 2 mps 636 mmHg 73%
    08:00 +3°C° 0 mm 2 mps 637 mmHg 72%
    09:00 +3°C° 0 mm 3 mps 637 mmHg 70%
    10:00 +4°C° 0 mm 3 mps 637 mmHg 69%
    11:00 +4°C° 0 mm 3 mps 637 mmHg 68%
    12:00 +5°C° 0 mm 3 mps 637 mmHg 67%
    13:00 +7°C° 0.1 mm 3 mps 637 mmHg 66%
    14:00 +7°C° 0.1 mm 3 mps 636 mmHg 64%
    15:00 +7°C° 0.1 mm 2 mps 636 mmHg 63%
    16:00 +7°C° 0.1 mm 2 mps 636 mmHg 64%
    17:00 +6°C° 0.1 mm 2 mps 636 mmHg 65%
    18:00 +5°C° 0.1 mm 2 mps 636 mmHg 66%
    19:00 +6°C° 0 mm 1 mps 637 mmHg 66%
    20:00 +5°C° 0 mm 1 mps 637 mmHg 67%
    21:00 +4°C° 0 mm 1 mps 637 mmHg 68%
    22:00 +4°C° 0 mm 1 mps 637 mmHg 68%
    23:00 +3°C° 0 mm 1 mps 638 mmHg 68%

    Day after tomorrow, 28 March, Thursday

    Time Temperature Precipitation Wind Pressure Humidity
    00:00 +3°C° 0 mm 1 mps 638 mmHg 68%
    01:00 +3°C° 0.1 mm 1 mps 638 mmHg 68%
    02:00 +3°C° 0.1 mm 1 mps 638 mmHg 69%
    03:00 +3°C° 0.1 mm 1 mps 638 mmHg 69%
    04:00 +2°C° 0.1 mm 1 mps 638 mmHg 70%
    05:00 +2°C° 0.1 mm 1 mps 638 mmHg 71%
    06:00 +2°C° 0.1 mm 1 mps 638 mmHg 72%
    07:00 +3°C° 0.2 mm 1 mps 638 mmHg 71%
    08:00 +4°C° 0.2 mm 1 mps 639 mmHg 69%
    09:00 +5°C° 0.2 mm 1 mps 639 mmHg 67%
    10:00 +5°C° 0.2 mm 2 mps 639 mmHg 67%
    11:00 +5°C° 0.2 mm 2 mps 639 mmHg 66%
    12:00 +6°C° 0.2 mm 2 mps 639 mmHg 66%
    13:00 +6°C° 0.3 mm 2 mps 638 mmHg 65%
    14:00 +6°C° 0.3 mm 2 mps 638 mmHg 65%
    15:00 +7°C° 0.3 mm 1 mps 638 mmHg 64%
    16:00 +6°C° 0.2 mm 1 mps 638 mmHg 65%
    17:00 +6°C° 0.2 mm 1 mps 638 mmHg 66%
    18:00 +5°C° 0.2 mm 0 mps 638 mmHg 67%
    19:00 +4°C° 0.2 mm 0 mps 638 mmHg 68%
    20:00 +4°C° 0.2 mm 0 mps 639 mmHg 70%
    21:00 +4°C° 0.2 mm 1 mps 639 mmHg 72%
    22:00 +4°C° 0.1 mm 1 mps 639 mmHg 72%
    23:00 +3°C° 0.1 mm 1 mps 639 mmHg 72%

    29 March, Friday

    Time Temperature Precipitation Wind Pressure Humidity
    00:00 +3°C° 0.1 mm 1 mps 639 mmHg 72%
    01:00 +3°C° 0.1 mm 1 mps 639 mmHg 72%
    02:00 +3°C° 0.1 mm 1 mps 639 mmHg 71%
    03:00 +2°C° 0.1 mm 1 mps 638 mmHg 71%
    04:00 +2°C° 0.2 mm 1 mps 639 mmHg 71%
    05:00 +2°C° 0.2 mm 1 mps 639 mmHg 72%
    06:00 +2°C° 0.2 mm 1 mps 639 mmHg 72%
    07:00 +3°C° 0.4 mm 1 mps 639 mmHg 70%
    08:00 +4°C° 0.4 mm 1 mps 639 mmHg 68%
    09:00 +4°C° 0.4 mm 1 mps 639 mmHg 66%
    10:00 +5°C° 0.3 mm 1 mps 639 mmHg 65%
    11:00 +5°C° 0.3 mm 1 mps 639 mmHg 64%
    12:00 +6°C° 0.3 mm 1 mps 639 mmHg 63%
    13:00 +6°C° 0.3 mm 1 mps 638 mmHg 63%
    14:00 +6°C° 0.3 mm 1 mps 638 mmHg 62%
    15:00 +7°C° 0.3 mm 1 mps 638 mmHg 62%
    16:00 +6°C° 0.3 mm 1 mps 638 mmHg 64%
    17:00 +6°C° 0.3 mm 1 mps 638 mmHg 65%
    18:00 +6°C° 0.3 mm 1 mps 638 mmHg 67%
    19:00 +5°C° 0.3 mm 1 mps 638 mmHg 69%
    20:00 +5°C° 0.3 mm 1 mps 638 mmHg 70%
    21:00 +3°C° 0.3 mm 2 mps 638 mmHg 72%
    22:00 +3°C° 0.4 mm 2 mps 638 mmHg 73%
    23:00 +3°C° 0.4 mm 2 mps 638 mmHg 74%

    30 March, Saturday

    Time Temperature Precipitation Wind Pressure Humidity
    00:00 +3°C° 0.4 mm 2 mps 638 mmHg 75%
    01:00 +2°C° 0.6 mm 2 mps 638 mmHg 75%
    02:00 +2°C° 0.6 mm 2 mps 637 mmHg 76%
    03:00 +2°C° 0.6 mm 2 mps 637 mmHg 77%
    04:00 +2°C° 0.4 mm 2 mps 637 mmHg 77%
    05:00 +1°C° 0.4 mm 2 mps 637 mmHg 76%
    06:00 +1°C° 0.4 mm 2 mps 637 mmHg 76%
    07:00 +2°C° 0.3 mm 2 mps 638 mmHg 74%
    08:00 +3°C° 0.3 mm 2 mps 638 mmHg 71%
    09:00 +5°C° 0.3 mm 1 mps 639 mmHg 68%
    10:00 +6°C° 0.2 mm 1 mps 639 mmHg 68%
    11:00 +7°C° 0.2 mm 1 mps 639 mmHg 68%
    12:00 +7°C° 0.2 mm 1 mps 639 mmHg 68%
    13:00 +7°C° 0.3 mm 1 mps 638 mmHg 67%
    14:00 +7°C° 0.3 mm 2 mps 638 mmHg 67%
    15:00 +7°C° 0.3 mm 2 mps 638 mmHg 67%
    16:00 +7°C° 0.3 mm 2 mps 638 mmHg 69%
    17:00 +6°C° 0.3 mm 2 mps 638 mmHg 70%
    18:00 +6°C° 0.3 mm 2 mps 638 mmHg 71%
    19:00 +5°C° 0.2 mm 2 mps 639 mmHg 72%
    20:00 +4°C° 0.2 mm 3 mps 639 mmHg 72%
    21:00 +3°C° 0.2 mm 3 mps 639 mmHg 73%
    22:00 +3°C° 0.2 mm 3 mps 639 mmHg 73%
    23:00 +3°C° 0.2 mm 3 mps 639 mmHg 74%

    31 March, Sunday

    Time Temperature Precipitation Wind Pressure Humidity
    00:00 +3°C° 0.2 mm 3 mps 639 mmHg 74%
    01:00 +3°C° 0.1 mm 3 mps 639 mmHg 75%
    02:00 +1°C° 0.1 mm 4 mps 639 mmHg 75%
    03:00 +1°C° 0.1 mm 4 mps 638 mmHg 76%
    04:00 +1°C° 0 mm 4 mps 638 mmHg 76%
    05:00 +1°C° 0 mm 4 mps 638 mmHg 76%
    06:00 +1°C° 0 mm 4 mps 638 mmHg 76%
    07:00 +3°C° 0 mm 4 mps 638 mmHg 73%
    08:00 +5°C° 0 mm 5 mps 638 mmHg 70%
    09:00 +6°C° 0 mm 5 mps 638 mmHg 67%
    10:00 +7°C° 0 mm 4 mps 637 mmHg 66%
    11:00 +7°C° 0 mm 4 mps 637 mmHg 66%
    12:00 +8°C° 0 mm 4 mps 637 mmHg 65%
    13:00 +8°C° 0.2 mm 4 mps 636 mmHg 66%
    14:00 +8°C° 0.2 mm 4 mps 635 mmHg 68%
    15:00 +9°C° 0.2 mm 3 mps 635 mmHg 69%
    16:00 +8°C° 0.2 mm 3 mps 635 mmHg 70%
    17:00 +7°C° 0.2 mm 3 mps 634 mmHg 72%
    18:00 +7°C° 0.2 mm 3 mps 634 mmHg 73%
    19:00 +5°C° 0.2 mm 3 mps 634 mmHg 74%
    20:00 +5°C° 0.2 mm 3 mps 634 mmHg 75%
    21:00 +4°C° 0.2 mm 3 mps 634 mmHg 76%
    22:00 +5°C° 0.2 mm 2 mps 634 mmHg 76%
    23:00 +5°C° 0.2 mm 2 mps 634 mmHg 76%
    Show more